Back to catalog

STARLINK-1553

AliveCommunicationsVLEO
NORAD 46348·PAYLOAD·🇺🇸 United States

Launched Sep 3, 2020 from Cape Canaveral Space Force Station

Loading…

Next Passes (next 24 hours)

TLE

FreshSource: CelesTrak SupGP

Epoch: Sep 14, 2026, 21:16 UTC

1 46348C 20062AA  26257.88659722 -.00002429  00000+0 -48102-4 0  2578
2 46348  53.0317 130.2067 0003814  76.7350 355.3391 15.46468170    11

Track STARLINK-1553 in real time with AllMySat

Download on the App Store